Regional Weather Roundup
Issued by NWS Sioux Falls, SD

Home | Current Version | Previous Version | Text Only | Print | Product List | Glossary On
Versions: 1 2 3 4 5 6 7 8 9 10 11 12 13 14 15 16 17 18 19 20 21 22 23 24 25 26 27 28 29 30 31 32 33 34 35 36 37 38 39 40 41 42 43 44 45 46 47 48 49 50
000
ASUS43 KFSD 160110
RWRFSD

WEATHER ROUNDUP FOR SE SOUTH DAKOTA/SW MINNESOTA/NW IOWA
NATIONAL WEATHER SERVICE SIOUX FALLS SD
800 PM CDT TUE JUN 15 2021

NOTE: "FAIR" INDICATES FEW OR NO CLOUDS BELOW 12,000 FEET WITH NO
SIGNIFICANT WEATHER AND OR OBSTRUCTIONS TO VISIBILITY.


SDZ038>040-050-052>070-160200-
SOUTHEAST SOUTH DAKOTA

CITY           SKY/WX    TMP DP  RH WIND       PRES   REMARKS
BROOKINGS      SUNNY     83  50  31 E12       30.08S
CHAMBERLAIN    SUNNY     87  60  39 SE12G17   29.99F
HURON          SUNNY     86  52  30 SE8       30.01F
MITCHELL       SUNNY     89  52  28 SE8       30.01F
SIOUX FALLS    MOSUNNY   88  45  22 SE8       30.05S
WINNER         SUNNY     87  65  47 SE13      29.98F
YANKTON        SUNNY     86  55  34 E7        30.03S
$$

MNZ071-072-080-081-089-090-097-098-160200-
SOUTHWEST MINNESOTA

CITY           SKY/WX    TMP DP  RH WIND       PRES   REMARKS
FAIRMONT       CLEAR     81  52  36 NE7       30.10R
JACKSON        PTCLDY    77  48  36 E6        30.11S
LUVERNE        SUNNY     82  48  30 E6        30.07F
MARSHALL       MOSUNNY   82  52  35 E12       30.09S
MONTEVIDEO     MOSUNNY   81  46  30 SE8       30.09
PIPESTONE      SUNNY     84  48  28 SE7       30.09S
REDWOOD FALLS  PTCLDY    79  54  41 E6        30.09S
TRACY          PTCLDY    81  49  32 E5        30.10S
WINDOM         PTCLDY    77  52  41 NE7       30.10S
WORTHINGTON    PTCLDY    82  52  35 E14       30.10F
$$

IAZ001>003-012>014-020>022-031-032-NEZ013-014-SDZ071-160200-
NORTHWEST IOWA

CITY           SKY/WX    TMP DP  RH WIND       PRES   REMARKS
CHEROKEE       PTCLDY    87  50  27 NE6       30.06S
DENISON        CLEAR     82  48  30 E6        30.06S
ESTHERVILLE    PTCLDY    78  53  41 NE7       30.09R
LE MARS        CLEAR     88  46  23 SE7       30.04R
MAURICE        FAIR      86  50  28 E7        30.04S
SHELDON        PTCLDY    84  50  30 E8        30.05S
SIOUX CITY     CLEAR     83  57  41 E5        30.03S
SPENCER        PTCLDY    82  52  35 E8        30.08S
STORM LAKE       N/A     82  52  34 E6        30.08R
$$

ABBREVIATIONS USED IN REMARKS
   TC - TEMPERATURE IN CELSIUS
  WCI - WIND CHILL INDEX
   HX - HEAT INDEX
  VSB - VISIBILITY




USA.gov is the U.S. government's official web portal to all federal, state and local government web resources and services.